Tacoma, WA

1:51 AM PST on February 25, 2017 (GMT -0800)
Gray Army Air Field

Weather History for KGRF - October, 2012

Change the Weather History Date:

Tuesday, October 2, 2012

  Actual Average Record
Temperature  
Mean Temperature 56 °F -  
Max Temperature 63 °F 64 °F 75 °F (2004)
Min Temperature 49 °F 44 °F 37 °F (2002)
Degree Days  
Heating Degree Days 10    
Growing Degree Days 6 (Base 50)    
Moisture  
Dew Point 46 °F    
Average Humidity 70    
Maximum Humidity 96    
Minimum Humidity 45    
Precipitation  
Precipitation 0.00 in - - ()
Sea Level Pressure  
Sea Level Pressure 30.20 in    
Wind  
Wind Speed 6 mph (NW)    
Max Wind Speed 14 mph    
Max Gust Speed 21 mph    
Visibility 10 miles    
Events      
Averages and records for this station are not official NWS values.
T = Trace of Precipitation, MM = Missing Value Source: NWS Daily Summary

Daily Weather History Graph

Daily Weather History Graph

Search for Another Location

Airport or City:

Trip Planner

Search our weather history database for the weather conditions in past years. The results will help you decide how hot, cold, wet, or windy it might be!

Date:

Astronomy

Oct. 02, 2012 Rise Set
Actual Time 7:11 AM PDT 6:46 PM PDT
Civil Twilight 6:40 AM PDT 7:17 PM PDT
Nautical Twilight 6:05 AM PDT 7:52 PM PDT
Astronomical Twilight 5:29 AM PDT 8:28 PM PDT
Moon 7:48 PM PDT (10/2) 9:56 AM PDT (10/2)
Length of Visible Light 12h 36m
Length of Day
11h 35m
Waning Gibbous, 93% of the Moon is Illuminated
Oct 2
Waning Gibbous
Oct 8
Last Quarter
Oct 15
New
Oct 21
First Quarter
Oct 29
Full

Hourly Weather History & Observations

Time (PDT) Temp. Dew Point Humidity Pressure Visibility Wind Dir Wind Speed Gust Speed Precip Events Conditions
12:13 AM 59.0 °F 51.8 °F 77% 30.15 in 10.0 mi West 5.8 mph - N/A   Overcast
12:48 AM 57.2 °F 53.6 °F 88% 30.17 in 9.0 mi NW 6.9 mph - N/A   Light Drizzle
12:58 AM 56.7 °F 52.7 °F 87% 30.18 in 9.0 mi NW 6.9 mph - 0.00 in   Light Drizzle
1:00 AM 57.2 °F 51.8 °F 82% 30.17 in 10.0 mi WNW 5.8 mph - N/A   Overcast
1:05 AM 57.2 °F 51.8 °F 82% 30.17 in 10.0 mi West 3.5 mph - N/A   Overcast
1:58 AM 56.1 °F 53.6 °F 91% 30.18 in 10.0 mi WSW 2.3 mph - 0.00 in   Overcast
2:58 AM 55.8 °F 52.9 °F 90% 30.18 in 10.0 mi SSW 2.3 mph - N/A   Overcast
3:25 AM 55.4 °F 53.6 °F 94% 30.17 in 10.0 mi SW 4.6 mph - N/A   Overcast
3:41 AM 53.6 °F 51.8 °F 94% 30.17 in 10.0 mi West 5.8 mph - N/A   Overcast
3:58 AM 53.2 °F 51.3 °F 93% 30.18 in 10.0 mi West 6.9 mph - N/A   Overcast
4:58 AM 52.5 °F 50.5 °F 93% 30.19 in 10.0 mi WNW 4.6 mph - N/A   Mostly Cloudy
5:58 AM 52.2 °F 50.2 °F 93% 30.20 in 10.0 mi West 5.8 mph - N/A   Overcast
6:58 AM 51.1 °F 49.3 °F 94% 30.20 in 10.0 mi WNW 3.5 mph - N/A   Scattered Clouds
7:58 AM 49.5 °F 48.4 °F 96% 30.21 in 10.0 mi SE 4.6 mph - N/A   Overcast
8:58 AM 51.8 °F 49.1 °F 90% 30.21 in 10.0 mi Variable 2.3 mph - N/A   Mostly Cloudy
9:58 AM 56.5 °F 42.1 °F 59% 30.21 in 10.0 mi Variable 4.6 mph - N/A   Overcast
10:58 AM 59.0 °F 39.9 °F 49% 30.20 in 10.0 mi NE 4.6 mph - N/A   Overcast
11:58 AM 60.4 °F 38.7 °F 45% 30.20 in 10.0 mi Variable 3.5 mph - N/A   Overcast
12:58 PM 61.3 °F 41.2 °F 48% 30.19 in 10.0 mi NW 6.9 mph - N/A   Overcast
1:58 PM 62.2 °F 41.9 °F 47% 30.18 in 10.0 mi Variable 4.6 mph - N/A   Mostly Cloudy
2:58 PM 62.1 °F 41.7 °F 47% 30.17 in 10.0 mi West 10.4 mph - N/A   Clear
3:58 PM 61.7 °F 41.5 °F 48% 30.17 in 10.0 mi North 9.2 mph - N/A   Overcast
4:58 PM 60.8 °F 39.4 °F 45% 30.18 in 10.0 mi NNW 5.8 mph - N/A   Overcast
5:58 PM 59.9 °F 38.7 °F 45% 30.19 in 10.0 mi NNW 9.2 mph - N/A   Overcast
6:58 PM 56.7 °F 36.3 °F 47% 30.20 in 10.0 mi North 9.2 mph - N/A   Partly Cloudy
7:58 PM 54.9 °F 37.2 °F 51% 30.22 in 10.0 mi North 8.1 mph - N/A   Clear
8:58 PM 54.3 °F 37.2 °F 52% 30.22 in 10.0 mi North 13.8 mph 20.7 mph N/A   Clear
9:58 PM 52.9 °F 38.8 °F 59% 30.25 in 10.0 mi North 9.2 mph - N/A   Clear
10:58 PM 52.2 °F 39.7 °F 63% 30.27 in 10.0 mi North 8.1 mph - N/A   Clear
11:58 PM 51.8 °F 39.7 °F 63% 30.27 in 10.0 mi North 8.1 mph - N/A   Clear